User: anonymous   Login
Location: Newark
(35.2161°N, 26.1013°E)
Time: 02:53:23
(UTC+00:00)
Language:

nSIGHT-1 - Orbit

View from above orbital plane
View from above orbital plane
View from above satellite
View from above satellite

Ground track
Ground track

The orbit data is extracted from the following two-line orbital elements,

1 42726U 98067MF  20018.19902159 +.00046927 +00000-0 +19859-3 0  9991
2 42726 051.6305 288.0999 0001278 230.1355 129.9536 15.84879731151505
Epoch (UTC): 18 January 2020 04:46:35
Eccentricity: 0.0001278
inclination: 51.6305°
perigee height: 316 km
apogee height: 317 km
right ascension of ascending node: 288.0999°
argument of perigee: 230.1355°
revolutions per day: 15.84879731
mean anomaly at epoch: 129.9536°
orbit number at epoch: 15150

The dashed part of the orbit path shows where the satellite is in the earth's shadow,  

DLR